Vertical_Velocity
1 2 2 2 2 2 2 1 1 1 1 1 0 0 0 1 1 1 0 1 1 1 1 1 1 1 1 0 -0 -0 -0 -1 -1 -1 -1 -1 -1 -0 0 1 1 1 1 1 3 3 2 2 2 2 2 2 2 1 1 1 1 1 0 0 0 1 1 1 1 1 1 1 1
1 1 1 2 2 1 1 1 1 1 0 0 0 0 1 1 1 1 0 0 0 1 1 1 1 1 1 1 0 -0 -0 -1 -1 -2 -2 -2 -2 -1 -0 1 1 1 1 2 4 4 4 4 3 2 2 2 2 1 1 0 1 1 1 0 0 1 1 1 1 1 1 1 1
1 1 1 1 1 1 1 0 0 0 -0 -0 0 1 1 1 1 0 0 -0 -0 1 1 1 1 1 1 1 1 0 -0 -1 -1 -2 -3 -3 -2 -1 1 3 2 2 2 3 3 3 3 4 3 2 2 1 1 1 0 0 1 1 1 0 1 1 2 2 1 1 1 1 1
0 0 1 1 0 0 -0 -0 -0 -0 -0 -0 0 1 1 1 1 0 -0 -0 -0 0 1 1 1 2 1 1 1 0 -0 -1 -1 -2 -3 -3 2 5 6 1 1 2 2 3 3 2 1 2 4 4 3 1 0 0 0 1 1 1 1 1 2 2 2 1 1 1 1 1 1
-1 -0 -0 0 -0 -0 -1 -1 -0 -0 -0 -0 1 1 1 0 0 -0 -0 -0 -0 0 1 2 2 2 1 1 1 0 -0 -0 -1 -2 -1 2 4 5 4 3 2 1 1 1 1 1 1 1 3 3 3 1 1 1 1 1 1 1 1 2 2 2 2 1 1 1 1 0 -0
-1 -1 -0 -0 -0 -1 -1 -1 -0 -0 -0 -0 1 1 0 -0 -0 -0 -0 -0 -0 0 1 1 2 1 1 1 1 1 0 -0 -1 -0 1 4 5 5 5 3 2 1 1 1 0 0 1 2 1 1 1 2 2 2 1 2 2 2 1 1 1 1 1 1 0 0 -0 -0 -0
-1 -1 -1 -0 -0 -1 -1 -1 -0 -0 -0 0 0 0 -0 -0 -0 -0 -0 -0 0 0 0 1 1 1 1 1 1 1 1 0 -0 -0 2 4 5 5 4 1 1 1 0 -0 -0 0 2 4 5 4 3 2 2 2 2 2 1 1 1 1 1 1 1 0 -1 -1 -0 0 1
-1 -1 -1 -0 -0 -1 -1 -0 -0 -0 -0 0 0 -0 -0 -0 -0 -0 -0 0 0 0 0 0 1 1 1 1 1 1 1 1 -0 0 2 4 3 2 1 0 -0 -1 -2 -2 -0 3 6 6 5 5 4 2 2 2 1 1 1 1 1 1 0 0 -0 -1 -1 -0 1 1 2
-1 -1 -1 -0 -0 -0 -0 -0 -0 -0 0 0 -0 -0 -0 -0 -0 -0 -0 -0 -0 -0 0 0 0 1 1 1 1 1 1 1 -0 1 3 5 2 1 0 -1 -2 -2 -3 -4 -0 4 6 4 2 1 1 2 1 1 0 0 1 1 1 1 1 0 0 0 1 1 2 2 2
-1 -1 -0 -0 -0 -0 0 0 0 0 0 0 -0 -0 -0 -0 -0 -0 -0 -0 -0 0 -0 -0 0 1 1 1 1 1 1 1 -0 -0 -1 -1 -0 0 0 -1 -1 -0 1 1 3 4 3 0 -0 -0 0 1 1 1 1 1 1 2 2 2 2 2 1 1 1 1 1 2 1
-1 -0 -0 -0 0 0 0 1 0 0 0 0 -0 -0 -0 -0 -0 -0 -0 0 0 -0 -0 -1 0 1 1 1 1 1 1 1 0 -0 -1 -1 -1 -0 -0 -1 -0 2 4 5 5 4 3 1 1 2 3 3 2 2 2 2 3 3 3 3 3 3 2 0 0 1 1 1 -0
-0 -0 -0 0 0 0 1 0 0 0 0 0 -0 -0 -0 -0 -0 -0 0 0 0 -0 -1 -0 0 0 0 0 0 1 1 1 1 1 0 -0 -1 -0 -0 -0 0 2 3 3 2 3 4 6 6 8 8 6 3 3 4 5 5 4 4 2 2 1 1 -0 -0 -0 -0 -0 -1
-0 -0 0 0 0 0 0 0 0 0 0 0 -0 -0 -0 -0 -0 0 0 0 -0 -1 -1 -0 -0 0 0 0 0 1 1 1 1 0 0 -0 -0 -0 0 0 0 1 1 1 -0 1 4 7 8 8 8 6 5 6 7 8 8 7 5 3 1 -0 -1 -2 -1 -1 -1 -0 -1
-1 -0 -0 -0 0 0 0 -0 0 0 0 0 -0 -0 0 0 0 0 0 -0 -1 -1 -1 -0 -0 -0 0 0 1 1 1 0 0 0 0 -0 0 0 0 -0 -0 0 0 -0 -2 -1 1 3 3 4 5 6 7 8 9 9 8 8 7 5 1 -1 -2 -2 -1 -1 -0 0 -0
-1 -1 -0 -0 -0 -0 -0 -0 -0 0 0 0 -0 -0 -0 0 -0 -0 -0 -0 -1 -1 -1 -0 -1 -0 -0 0 1 1 0 0 0 0 0 0 0 0 -0 -0 0 0 0 -0 -2 -2 -2 -2 -2 0 3 6 7 7 7 6 5 5 5 3 1 -1 -1 -1 -0 0 1 1 0
-1 -1 -1 -0 -0 -0 -0 -0 -0 -0 -0 -0 -0 -0 -0 -0 -1 -1 -1 -1 -1 -1 -1 -1 -1 -0 -0 -0 0 0 0 -0 -0 0 0 0 0 0 -0 0 0 0 0 0 -0 -2 -2 -3 -2 1 4 6 7 6 5 3 2 2 2 2 1 0 0 1 1 1 0 0 0
-1 -1 -1 -1 -1 -1 -1 -1 -1 -1 -1 -1 -1 -1 -1 -1 -1 -1 -1 -1 -1 -1 -1 -1 -1 -0 -0 -0 -0 -0 0 -0 -0 -0 0 1 0 0 0 0 0 -0 -0 0 -0 -1 -2 -3 -2 1 5 7 6 4 2 0 -0 -0 1 4 3 2 1 1 1 1 -0 -0 0
-1 -1 -1 -1 -1 -1 -1 -1 -1 -1 -1 -1 -1 -1 -1 -1 -1 -1 -1 -1 -0 -0 -0 -1 -1 -1 -0 -1 -1 -0 -0 0 -0 -0 0 1 1 1 0 0 -0 -0 -0 -1 -1 -1 -2 -3 -2 1 5 6 4 1 -1 -2 -2 -1 1 2 2 2 2 1 1 1 0 1 1
-1 -2 -2 -1 -1 -1 -1 -1 -1 -1 -1 -1 -1 -1 -1 -1 -1 -1 -1 -1 -1 -0 -0 -1 -1 -1 -1 -1 -1 -1 -0 -0 -0 0 0 0 1 0 0 -0 -0 -0 -0 -1 -1 -1 -2 -3 -1 1 4 4 2 0 -1 -2 -0 2 3 2 2 1 1 1 1 1 2 2 2
-2 -2 -2 -2 -2 -2 -2 -2 -2 -2 -1 -1 -1 -1 -1 -1 -1 -1 -1 -1 -1 -0 -0 -0 -1 -1 -1 -1 -1 -1 -1 -1 -0 0 0 0 0 0 -0 -0 -0 -0 -1 -1 -1 -2 -2 -2 -0 1 2 2 2 1 0 0 3 3 3 2 2 1 1 1 1 1 2 2 2
-2 -2 -2 -2 -2 -2 -2 -2 -2 -2 -1 -1 -1 -1 -1 -1 -1 -1 -0 -0 -0 -0 -0 -0 -0 -0 -0 -1 -1 -1 -1 -1 -0 0 0 0 0 0 -0 -0 -0 -1 -1 -1 -2 -2 -2 -2 -1 -1 0 1 1 1 1 1 3 2 1 1 1 1 1 1 1 2 2 2 2
-2 -2 -2 -2 -2 -2 -2 -2 -2 -1 -1 -1 -1 -1 -0 -0 -0 -0 0 0 0 0 0 -0 -0 -0 -0 -0 -0 -0 -0 -0 -0 0 0 0 -0 -0 -1 -0 -1 -1 -2 -2 -2 -2 -2 -2 -1 -1 -0 0 -0 -0 -0 0 1 1 1 1 0 0 1 1 1 2 2 2 1
-2 -2 -2 -2 -2 -2 -2 -1 -1 -1 -1 -0 -0 0 0 0 1 1 1 1 1 1 1 0 0 0 -0 -0 -0 -0 -0 -0 -1 -0 -0 -0 -1 -1 -1 -1 -1 -2 -2 -2 -2 -2 -1 -1 -1 -0 -0 -0 -1 -1 -1 -1 -1 -0 -0 -0 -0 -0 -0 0 1 1 1 1 1
-2 -2 -2 -2 -1 -1 -1 -1 -1 -0 -0 -0 -0 0 0 1 1 1 1 1 1 1 0 0 0 -0 -0 -0 -0 -0 -1 -1 -1 -1 -1 -1 -1 -1 -2 -2 -2 -2 -2 -2 -2 -1 -1 -1 -0 -1 -1 -1 -2 -2 -2 -2 -1 -1 -1 -1 -2 -2 -2 -1 -1 -0 0 0 -0
-1 -1 -1 -1 -1 -1 -1 -0 -0 -0 -0 -0 -0 -0 -0 -0 -0 -0 -0 -0 -0 -0 -0 -0 -0 -0 -0 -0 -1 -1 -1 -1 -1 -2 -2 -2 -2 -1 -1 -1 -1 -1 -1 -1 -1 -1 -1 -1 -1 -1 -2 -2 -2 -2 -2 -2 -2 -1 -2 -2 -2 -2 -2 -2 -2 -1 -0 0 -0
-1 -1 -1 -1 -1 -1 -1 -1 -1 -1 -1 -1 -1 -1 -1 -1 -1 -1 -1 -1 -1 -1 -1 -1 -1 -1 -0 -0 -1 -1 -1 -1 -1 -1 -1 -1 -1 -1 -1 -1 -1 -1 -1 -1 -1 -1 -2 -2 -2 -2 -2 -2 -2 -2 -2 -2 -2 -2 -2 -2 -2 -2 -2 -2 -2 -1 -1 -0 -0
-1 -1 -1 -1 -1 -1 -1 -1 -1 -1 -2 -2 -2 -2 -2 -2 -2 -1 -1 -1 -2 -2 -2 -1 -1 -1 -1 -0 -0 -0 -0 -0 0 0 0 -0 -0 -1 -1 -1 -1 -1 -1 -1 -1 -1 -2 -2 -2 -2 -2 -1 -1 -1 -1 -2 -2 -2 -2 -2 -2 -1 -1 -0 -0 -0 -0 -0 -1
-1 -1 -1 -1 -2 -2 -2 -2 -2 -2 -2 -2 -2 -2 -2 -2 -2 -2 -2 -1 -1 -1 -1 -1 -1 -1 -1 -0 -0 -0 0 0 0 0 0 -0 -0 -1 -1 -1 -1 -1 -1 -1 -1 -1 -1 -1 -1 -1 -1 -1 -1 -1 -1 -1 -1 -1 -1 -1 -1 -1 -0 0 1 1 1 -0 -1
-1 -2 -2 -2 -2 -2 -2 -2 -2 -2 -2 -2 -2 -2 -2 -2 -2 -2 -2 -1 -1 -1 -1 -1 -1 -1 -1 -1 -1 -1 -0 -0 -1 -1 -0 -1 -1 -1 -1 -1 -1 -1 -1 -1 -1 -1 -1 -1 -1 -1 -1 -1 -1 -1 -1 -1 -1 -1 -1 -1 -0 0 1 1 1 1 1 0 -0
-2 -2 -2 -2 -2 -2 -2 -1 -1 -1 -1 -1 -1 -1 -1 -1 -1 -1 -1 -1 -1 -1 -1 -1 -1 -1 -1 -1 -0 -0 -1 -1 -1 -0 -0 -0 -1 -1 -1 -0 -1 -1 -1 -0 -0 -0 -0 -0 -0 -0 -0 -0 -0 -0 -0 -0 -0 -0 -0 -0 0 1 1 1 1 1 0 0 0
-1 -1 -1 -1 -1 -1 -1 -1 -1 -0 -0 -0 -0 0 0 -0 -0 -0 -0 -0 -0 -0 -0 -0 -0 -0 -0 -0 0 0 -0 -0 -0 -0 -0 -0 -0 -1 -1 -1 -1 -1 -0 -0 0 0 0 -0 -0 -0 0 0 1 0 -0 -0 -0 -0 0 0 0 1 1 1 1 1 0 0 0
-1 -1 -1 -1 -1 -1 -0 -0 -0 -0 0 0 0 1 1 1 1 1 1 1 1 0 0 0 1 0 0 0 0 0 0 -0 -0 -0 -0 -0 -0 -1 -1 -1 -1 -1 -0 0 0 0 0 0 0 0 0 1 1 0 0 -0 0 0 0 1 1 1 0 0 0 -0 -0 -0 0
-1 -0 -0 -0 -0 -0 -0 -0 -0 -0 0 0 0 0 0 0 0 1 1 1 1 1 1 1 1 0 0 0 -0 -0 -0 -0 -0 -0 -0 -0 -0 -1 -1 -1 -1 -0 0 1 0 0 -0 -0 0 0 0 1 1 0 0 0 0 0 1 1 1 0 0 0 -0 -0 -0 -0 0
-1 -1 -1 -1 -0 -0 -0 -0 -0 -0 -0 -0 -0 -0 0 0 -0 -0 0 0 0 0 0 0 0 0 -0 -0 -0 -0 -1 -1 -1 -1 -1 -1 -1 -1 -1 -1 -1 -0 0 0 -0 -0 -0 -0 -0 0 0 1 1 0 0 -0 0 0 1 1 0 -0 -0 -0 -0 -0 -0 -0 0
-1 -1 -1 -1 -1 -1 -1 -0 -0 -0 -0 -0 -0 -0 -0 -0 -0 -0 -0 -0 -0 -0 -0 -0 -0 -0 -0 -0 -0 -0 -0 -1 -1 -1 -1 -1 -1 -1 -1 -2 -1 -0 0 0 -0 -0 -0 -0 -0 0 0 1 1 1 0 0 0 1 1 1 -0 -1 -1 -1 -0 -0 -0 -0 0
-1 -1 -1 -1 -1 -1 -1 -1 -0 -0 -0 -0 -0 -0 -0 -0 -0 -0 -0 -0 -0 -0 -1 -1 -0 -0 -0 -0 -0 -0 -0 -0 -1 -1 -1 -1 -1 -1 -1 -2 -1 -1 -0 0 -0 -0 -0 -0 -0 0 0 1 1 0 0 0 0 1 1 1 -0 -1 -1 -1 -0 0 0 0 0
-1 -1 -1 -1 -1 -1 -1 -1 -0 -0 -0 -1 -0 -0 -0 -0 -1 -0 -0 0 -0 -0 -1 -0 -0 -0 -0 -0 -0 -1 -1 -0 -1 -1 -1 -1 -1 -1 -1 -2 -2 -1 -0 0 -0 -0 -0 -0 -0 0 0 1 1 0 0 0 0 0 0 0 -0 -1 -1 -1 -0 0 1 0 0
-2 -1 -1 -1 -1 -1 -1 -1 -0 -0 -1 -1 -1 -0 -0 -0 -0 -0 -0 0 0 -0 -1 -1 -0 -0 -0 -0 -1 -1 -1 -1 -1 -1 -1 -2 -1 -1 -1 -1 -2 -1 -0 0 -0 -0 -1 -1 -0 -0 0 1 1 1 1 1 1 1 0 0 -0 -1 -1 -1 -0 1 1 -0 -1
-2 -1 -1 -1 -1 -1 -1 -1 -1 -1 -1 -1 -1 -1 -1 -0 -0 -0 -0 -0 -0 -0 -1 -1 -1 -1 -1 -0 -1 -1 -1 -1 -1 -1 -1 -1 -2 -1 -1 -1 -1 -1 -0 0 -0 -0 -1 -1 -1 -0 -0 1 1 1 1 1 1 1 1 0 0 0 0 -0 0 0 0 -0 -1
-1 -1 -1 -1 -1 -1 -1 -1 -1 -1 -1 -1 -1 -1 -1 -1 -1 -1 -1 -0 -0 -0 -1 -1 -1 -1 -1 -1 -1 -1 -1 -2 -1 -1 -1 -1 -1 -1 -1 -1 -1 -1 -0 -0 -0 -1 -1 -1 -1 -0 -0 0 1 1 1 2 2 1 1 1 1 1 1 1 1 0 -0 -0 -0
-1 -1 -1 -1 -1 -1 -1 -1 -1 -1 -1 -1 -1 -1 -1 -1 -1 -1 -1 -1 -1 -1 -1 -1 -1 -1 -1 -1 -1 -1 -1 -2 -2 -1 -1 -1 -1 -1 -1 -1 -1 -1 -1 -0 -0 -0 -1 -1 -1 -1 -0 0 1 1 2 2 2 2 1 1 2 2 2 2 1 1 1 0 0
Height
5751 5751 5750 5749 5749 5748 5748 5747 5746 5746 5745 5744 5744 5743 5742 5742 5741 5741 5740 5739 5739 5738 5737 5737 5736 5736 5735 5734 5734 5733 5733 5732 5732 5731 5731 5731 5731 5731 5730 5730 5729 5729 5728 5727 5726 5725 5724 5723 5722 5721 5721 5720 5719 5718 5717 5716 5716 5715 5714 5713 5712 5711 5711 5710 5709 5708 5707 5706 5705
5748 5748 5747 5747 5746 5746 5745 5744 5744 5743 5742 5741 5741 5741 5740 5739 5739 5738 5737 5737 5736 5736 5735 5734 5734 5733 5733 5732 5731 5731 5731 5730 5730 5729 5729 5728 5728 5728 5728 5727 5727 5726 5726 5725 5724 5723 5722 5721 5720 5719 5718 5717 5716 5716 5715 5714 5713 5712 5711 5710 5710 5709 5708 5707 5706 5705 5704 5703 5702
5746 5745 5745 5744 5744 5743 5742 5742 5741 5740 5740 5739 5738 5738 5737 5737 5736 5736 5735 5734 5734 5733 5733 5732 5731 5731 5730 5730 5729 5729 5728 5728 5727 5727 5726 5726 5726 5727 5726 5725 5725 5725 5724 5723 5722 5720 5719 5718 5717 5716 5715 5715 5714 5713 5712 5711 5710 5709 5709 5708 5707 5706 5705 5704 5703 5702 5701 5700 5699
5743 5742 5742 5742 5741 5741 5740 5739 5738 5738 5737 5736 5736 5736 5735 5735 5734 5733 5732 5732 5731 5731 5730 5730 5729 5729 5728 5728 5727 5726 5726 5726 5725 5725 5724 5725 5725 5724 5723 5722 5722 5721 5720 5720 5718 5717 5716 5715 5715 5714 5713 5712 5711 5711 5710 5709 5708 5707 5706 5705 5704 5703 5702 5701 5700 5699 5698 5697 5696
5740 5740 5740 5739 5739 5738 5737 5736 5736 5735 5735 5734 5734 5733 5733 5732 5731 5731 5730 5729 5729 5728 5728 5727 5727 5726 5726 5725 5725 5724 5724 5723 5723 5722 5723 5724 5722 5721 5720 5719 5718 5717 5717 5716 5716 5715 5714 5713 5712 5712 5711 5710 5709 5708 5707 5706 5705 5704 5703 5702 5701 5701 5700 5698 5697 5696 5696 5694 5693
5738 5737 5737 5736 5736 5735 5735 5734 5733 5733 5732 5732 5731 5731 5730 5730 5729 5728 5728 5727 5726 5726 5726 5725 5724 5724 5723 5723 5722 5722 5721 5721 5721 5721 5721 5720 5719 5719 5718 5716 5716 5715 5714 5714 5713 5712 5711 5711 5711 5710 5709 5707 5706 5705 5704 5703 5702 5701 5701 5700 5699 5698 5697 5696 5695 5694 5693 5691 5690
5735 5735 5734 5734 5733 5732 5732 5731 5731 5730 5730 5729 5729 5728 5728 5727 5726 5726 5725 5725 5724 5724 5723 5722 5722 5721 5721 5721 5720 5720 5719 5719 5718 5718 5719 5718 5717 5717 5716 5714 5713 5712 5712 5712 5711 5711 5710 5709 5709 5707 5706 5705 5704 5702 5701 5701 5700 5699 5698 5697 5696 5696 5694 5693 5692 5691 5690 5689 5688
5732 5732 5732 5731 5731 5730 5729 5729 5728 5728 5727 5727 5726 5726 5725 5725 5724 5723 5723 5722 5722 5721 5721 5720 5720 5719 5719 5718 5718 5717 5717 5716 5716 5716 5717 5716 5715 5713 5712 5711 5711 5710 5710 5710 5710 5710 5709 5707 5705 5703 5702 5702 5701 5700 5699 5698 5697 5696 5696 5695 5694 5693 5691 5690 5689 5688 5687 5686 5685
5730 5730 5729 5728 5728 5727 5727 5726 5726 5725 5725 5724 5724 5723 5723 5722 5721 5721 5721 5720 5719 5719 5718 5718 5717 5717 5716 5716 5715 5715 5714 5714 5713 5713 5713 5712 5711 5711 5710 5709 5708 5708 5708 5708 5708 5707 5705 5704 5702 5701 5700 5699 5698 5697 5696 5695 5694 5694 5693 5692 5691 5690 5689 5688 5686 5685 5684 5683 5682
5727 5727 5726 5726 5726 5725 5724 5724 5723 5723 5722 5722 5721 5721 5720 5720 5719 5719 5718 5717 5717 5716 5716 5716 5715 5715 5714 5714 5713 5712 5712 5711 5711 5711 5711 5709 5709 5708 5707 5706 5706 5706 5706 5706 5705 5703 5701 5700 5699 5698 5698 5697 5696 5695 5694 5692 5692 5691 5690 5689 5688 5687 5686 5685 5684 5682 5681 5680 5679
5725 5725 5724 5724 5723 5722 5722 5721 5721 5721 5720 5720 5719 5718 5718 5717 5717 5716 5716 5715 5715 5714 5714 5713 5713 5712 5712 5711 5711 5710 5709 5709 5708 5707 5707 5706 5706 5705 5705 5704 5704 5704 5704 5703 5701 5700 5699 5698 5697 5697 5696 5694 5693 5692 5691 5690 5689 5688 5687 5686 5685 5684 5683 5682 5681 5680 5678 5677 5676
5722 5722 5721 5721 5721 5720 5720 5719 5719 5718 5718 5717 5717 5716 5716 5715 5715 5714 5713 5713 5712 5712 5711 5711 5711 5710 5709 5709 5708 5707 5707 5706 5706 5705 5704 5704 5703 5702 5702 5701 5701 5701 5700 5699 5698 5698 5698 5697 5696 5695 5693 5691 5690 5690 5689 5688 5687 5686 5685 5684 5682 5681 5680 5679 5677 5676 5675 5674 5672
5720 5720 5719 5719 5718 5718 5717 5717 5716 5716 5716 5715 5714 5714 5713 5713 5712 5712 5711 5711 5710 5710 5709 5708 5708 5707 5707 5706 5706 5705 5704 5704 5703 5702 5701 5701 5700 5700 5699 5698 5698 5697 5697 5696 5696 5696 5696 5695 5693 5692 5691 5689 5689 5688 5687 5686 5685 5684 5683 5681 5680 5679 5677 5676 5675 5673 5672 5671 5670
5718 5717 5717 5716 5716 5715 5715 5715 5714 5714 5713 5713 5712 5711 5711 5711 5710 5709 5709 5708 5708 5707 5706 5706 5706 5705 5704 5704 5703 5702 5702 5701 5700 5700 5699 5698 5697 5697 5696 5696 5695 5694 5694 5693 5693 5693 5692 5691 5690 5690 5690 5688 5687 5686 5685 5684 5682 5681 5680 5679 5677 5676 5675 5673 5672 5671 5670 5668 5667
5715 5715 5715 5714 5714 5713 5713 5712 5712 5711 5711 5711 5710 5709 5709 5708 5708 5707 5706 5706 5705 5705 5704 5704 5703 5702 5702 5701 5701 5700 5699 5699 5698 5697 5696 5696 5695 5694 5694 5693 5692 5691 5691 5690 5690 5689 5689 5688 5688 5688 5687 5686 5685 5683 5682 5680 5679 5678 5677 5676 5675 5674 5672 5671 5670 5669 5667 5666 5664
5713 5713 5712 5712 5711 5711 5711 5710 5710 5709 5709 5708 5707 5707 5706 5706 5705 5705 5704 5704 5703 5702 5702 5701 5701 5700 5700 5699 5698 5698 5697 5696 5696 5695 5694 5693 5692 5692 5691 5690 5690 5689 5688 5688 5687 5686 5686 5686 5686 5685 5685 5684 5682 5681 5679 5678 5676 5676 5675 5674 5672 5671 5670 5669 5667 5666 5664 5663 5661
5711 5711 5710 5710 5709 5709 5709 5708 5707 5707 5706 5706 5705 5705 5704 5704 5703 5702 5702 5701 5701 5700 5700 5699 5698 5698 5697 5696 5696 5695 5695 5694 5693 5692 5692 5691 5690 5689 5689 5688 5687 5686 5686 5686 5685 5684 5683 5683 5683 5682 5682 5681 5679 5678 5676 5676 5674 5674 5673 5671 5670 5669 5667 5666 5664 5663 5661 5660 5658
5709 5709 5708 5708 5707 5707 5706 5706 5705 5705 5704 5704 5703 5702 5702 5701 5701 5700 5700 5699 5699 5698 5697 5697 5696 5696 5695 5694 5693 5693 5692 5691 5691 5690 5689 5689 5688 5687 5686 5685 5685 5684 5683 5682 5681 5681 5680 5680 5680 5680 5679 5678 5676 5675 5674 5673 5672 5671 5671 5669 5667 5666 5664 5662 5661 5659 5658 5656 5655
5707 5707 5706 5706 5705 5705 5704 5704 5703 5703 5702 5701 5701 5701 5700 5699 5699 5698 5698 5697 5696 5696 5695 5695 5694 5693 5692 5692 5691 5690 5690 5689 5688 5687 5687 5686 5685 5685 5684 5683 5682 5681 5680 5680 5679 5678 5677 5677 5677 5676 5676 5675 5674 5673 5672 5671 5670 5668 5667 5666 5664 5662 5661 5659 5658 5656 5655 5653 5651
5705 5705 5704 5704 5703 5703 5702 5702 5701 5701 5700 5700 5699 5698 5698 5697 5697 5696 5696 5695 5694 5694 5693 5692 5692 5691 5690 5690 5689 5688 5687 5686 5686 5685 5684 5684 5683 5682 5681 5680 5679 5678 5678 5677 5676 5675 5675 5674 5674 5673 5673 5672 5671 5670 5669 5668 5666 5665 5664 5662 5661 5659 5658 5656 5655 5653 5651 5650 5648
5703 5703 5702 5702 5701 5701 5701 5700 5699 5699 5698 5698 5697 5696 5696 5696 5695 5694 5694 5693 5692 5692 5691 5690 5690 5689 5688 5687 5686 5686 5685 5684 5683 5683 5682 5681 5680 5679 5678 5678 5677 5676 5675 5674 5673 5673 5672 5672 5671 5671 5670 5669 5668 5667 5666 5665 5663 5662 5661 5659 5658 5656 5655 5653 5651 5650 5648 5646 5645
5701 5701 5701 5700 5700 5699 5699 5698 5697 5697 5696 5696 5696 5695 5694 5694 5693 5692 5692 5691 5691 5690 5689 5688 5687 5687 5686 5685 5684 5683 5683 5682 5681 5680 5679 5679 5678 5677 5676 5675 5674 5673 5672 5671 5671 5670 5670 5669 5668 5667 5667 5666 5665 5664 5663 5661 5660 5659 5658 5656 5655 5653 5651 5650 5648 5647 5645 5643 5641
5700 5699 5699 5698 5698 5697 5697 5696 5696 5696 5695 5694 5694 5693 5693 5692 5691 5691 5690 5689 5688 5688 5687 5686 5685 5684 5683 5683 5682 5681 5680 5679 5678 5678 5677 5676 5675 5674 5673 5672 5671 5671 5670 5669 5668 5667 5667 5666 5665 5665 5664 5663 5662 5661 5660 5658 5657 5656 5654 5653 5651 5650 5648 5647 5645 5643 5641 5640 5638
5698 5698 5697 5697 5696 5696 5695 5695 5694 5694 5693 5693 5692 5691 5691 5690 5689 5689 5688 5687 5686 5686 5685 5684 5683 5682 5681 5680 5679 5678 5678 5677 5676 5675 5674 5673 5672 5671 5671 5670 5669 5668 5667 5666 5666 5665 5664 5663 5662 5661 5661 5660 5659 5657 5656 5655 5654 5652 5651 5649 5648 5646 5645 5643 5641 5640 5638 5636 5634
5697 5696 5696 5695 5695 5694 5694 5693 5693 5692 5691 5691 5690 5689 5689 5688 5687 5686 5686 5685 5684 5683 5682 5681 5680 5680 5679 5678 5677 5676 5675 5674 5673 5672 5671 5671 5670 5669 5668 5667 5666 5666 5665 5664 5663 5662 5661 5661 5660 5658 5657 5656 5655 5654 5653 5651 5650 5649 5647 5646 5644 5643 5641 5640 5638 5636 5635 5633 5631
5695 5695 5694 5694 5693 5692 5692 5691 5691 5690 5689 5689 5688 5687 5686 5686 5685 5684 5683 5682 5681 5681 5680 5679 5678 5677 5676 5675 5674 5674 5673 5672 5671 5670 5669 5669 5668 5667 5666 5665 5664 5663 5662 5661 5660 5659 5658 5657 5656 5656 5654 5653 5652 5651 5650 5648 5647 5646 5644 5642 5641 5640 5638 5636 5635 5633 5631 5629 5627
5693 5693 5692 5692 5691 5691 5690 5689 5689 5688 5687 5686 5686 5685 5684 5683 5682 5681 5681 5680 5679 5678 5677 5676 5676 5675 5674 5673 5672 5671 5671 5670 5669 5668 5667 5666 5666 5665 5663 5662 5661 5661 5660 5659 5658 5657 5656 5655 5654 5652 5651 5650 5649 5648 5647 5645 5644 5642 5641 5639 5638 5636 5635 5633 5631 5629 5627 5625 5623
5692 5691 5691 5690 5689 5689 5688 5687 5686 5686 5685 5684 5683 5683 5682 5681 5680 5679 5679 5678 5677 5676 5675 5674 5673 5672 5671 5671 5670 5669 5668 5668 5667 5666 5665 5664 5663 5662 5661 5660 5659 5658 5657 5656 5655 5654 5653 5652 5651 5650 5649 5647 5646 5645 5644 5642 5641 5639 5638 5636 5635 5633 5631 5630 5628 5626 5624 5622 5620
5690 5689 5689 5688 5687 5687 5686 5685 5685 5684 5683 5682 5681 5681 5680 5679 5678 5677 5676 5676 5675 5674 5673 5672 5671 5670 5669 5669 5668 5667 5666 5665 5664 5663 5663 5662 5661 5660 5659 5658 5657 5656 5655 5654 5653 5651 5651 5650 5648 5647 5646 5645 5643 5642 5641 5639 5638 5636 5635 5633 5631 5630 5628 5626 5624 5622 5621 5618 5616
5688 5687 5687 5686 5686 5685 5684 5684 5683 5682 5681 5680 5679 5679 5678 5677 5676 5675 5674 5674 5673 5672 5671 5670 5669 5668 5667 5666 5666 5665 5664 5663 5662 5661 5660 5659 5658 5657 5656 5655 5654 5653 5652 5651 5650 5649 5648 5647 5646 5645 5643 5642 5641 5639 5638 5636 5635 5633 5631 5630 5628 5627 5625 5623 5621 5619 5617 5615 5613
5686 5686 5685 5685 5684 5683 5682 5682 5681 5680 5679 5678 5678 5677 5676 5675 5674 5673 5672 5671 5671 5670 5669 5668 5667 5666 5665 5664 5663 5662 5662 5661 5660 5659 5658 5657 5656 5655 5654 5653 5652 5651 5650 5649 5648 5647 5646 5644 5643 5642 5641 5639 5638 5636 5635 5633 5631 5630 5628 5627 5625 5623 5621 5619 5617 5616 5613 5611 5609
5685 5684 5683 5683 5682 5681 5681 5680 5679 5678 5677 5676 5676 5675 5674 5673 5672 5671 5670 5669 5668 5667 5666 5666 5665 5664 5663 5662 5661 5660 5659 5658 5657 5656 5656 5655 5654 5653 5651 5651 5650 5648 5647 5646 5645 5644 5643 5642 5641 5639 5638 5636 5635 5633 5631 5630 5628 5627 5625 5623 5622 5620 5618 5616 5614 5611 5610 5607 5606
5683 5682 5681 5681 5680 5680 5679 5678 5677 5676 5675 5675 5674 5673 5672 5671 5670 5669 5668 5667 5666 5665 5664 5663 5662 5662 5661 5660 5659 5658 5657 5656 5655 5654 5653 5652 5651 5650 5649 5648 5647 5646 5645 5644 5643 5641 5640 5639 5638 5636 5635 5633 5632 5630 5628 5627 5625 5624 5622 5620 5618 5616 5614 5612 5610 5608 5606 5604 5602
5681 5680 5680 5679 5678 5677 5677 5676 5675 5674 5673 5672 5671 5671 5670 5668 5667 5666 5666 5665 5664 5663 5662 5661 5660 5659 5658 5657 5656 5656 5655 5653 5652 5651 5651 5650 5649 5648 5647 5646 5645 5643 5642 5641 5640 5639 5637 5636 5635 5633 5632 5630 5629 5627 5625 5624 5622 5620 5618 5616 5615 5613 5611 5609 5606 5604 5602 5600 5598
5679 5678 5677 5677 5676 5675 5675 5674 5673 5672 5671 5670 5669 5668 5667 5666 5665 5664 5663 5662 5661 5660 5659 5658 5657 5656 5656 5655 5654 5653 5652 5651 5650 5649 5648 5647 5646 5645 5644 5643 5642 5641 5640 5638 5637 5636 5634 5633 5631 5630 5629 5627 5626 5624 5622 5620 5619 5617 5615 5613 5611 5609 5607 5605 5603 5601 5599 5597 5595
5677 5676 5675 5675 5674 5673 5672 5671 5671 5670 5668 5667 5666 5666 5665 5664 5662 5661 5661 5659 5658 5658 5657 5656 5655 5654 5653 5652 5651 5651 5650 5649 5647 5646 5646 5645 5643 5642 5641 5640 5639 5638 5636 5635 5634 5633 5631 5630 5628 5627 5626 5624 5622 5621 5619 5617 5616 5614 5612 5610 5607 5606 5603 5601 5599 5597 5595 5593 5591
5675 5674 5673 5672 5671 5671 5670 5669 5668 5667 5666 5665 5664 5663 5662 5661 5660 5659 5658 5657 5656 5655 5654 5653 5652 5651 5651 5650 5649 5648 5647 5646 5645 5644 5643 5642 5641 5640 5638 5637 5636 5635 5634 5632 5631 5630 5628 5627 5625 5624 5622 5621 5619 5617 5616 5614 5612 5610 5608 5606 5604 5602 5600 5598 5596 5594 5592 5590 5587
5672 5672 5671 5670 5669 5668 5667 5666 5666 5665 5663 5662 5661 5661 5660 5658 5657 5656 5656 5655 5654 5653 5652 5651 5650 5649 5648 5647 5646 5645 5644 5643 5642 5641 5640 5639 5638 5637 5636 5634 5633 5632 5631 5629 5628 5626 5625 5624 5622 5621 5619 5618 5616 5614 5612 5611 5609 5607 5605 5602 5600 5598 5596 5594 5592 5590 5588 5586 5584
5670 5670 5669 5668 5667 5666 5665 5664 5663 5662 5661 5660 5659 5658 5657 5656 5655 5654 5653 5652 5651 5650 5649 5648 5647 5646 5646 5645 5644 5643 5641 5641 5640 5638 5637 5636 5635 5634 5632 5631 5630 5629 5628 5626 5625 5623 5622 5621 5619 5618 5616 5614 5613 5611 5609 5607 5605 5603 5601 5599 5597 5595 5592 5590 5588 5586 5584 5582 5580
5668 5667 5666 5666 5665 5664 5663 5662 5661 5660 5659 5657 5656 5656 5654 5653 5652 5651 5650 5649 5648 5647 5646 5646 5645 5644 5643 5642 5641 5640 5639 5638 5637 5636 5634 5633 5632 5631 5630 5628 5627 5626 5625 5623 5622 5620 5619 5617 5616 5614 5613 5611 5609 5607 5606 5604 5602 5600 5598 5596 5593 5591 5589 5587 5585 5583 5581 5578 5576
5666 5665 5664 5663 5662 5661 5660 5659 5658 5657 5656 5655 5654 5653 5652 5651 5650 5649 5648 5647 5646 5645 5644 5643 5642 5641 5640 5639 5638 5637 5636 5635 5634 5633 5631 5630 5629 5628 5626 5625 5624 5623 5621 5620 5619 5617 5616 5614 5612 5611 5609 5607 5606 5604 5602 5601 5598 5596 5594 5592 5590 5588 5586 5584 5581 5580 5577 5575 5573